User: anonymous   Login
Location: *
(51.4660°N, 0.3360°W)
Time: 04:54:03
(UTC+00:00)
Language:

SJ 16-02 - Orbit

View from above orbital plane
View from above orbital plane
View from above satellite
View from above satellite

Ground track
Ground track

The orbit data is extracted from the following two-line orbital elements,

1 41634U 16043A   19318.58359640  .00000082  00000-0  12561-4 0  9993
2 41634  75.0010 116.2656 0006887  97.8269 262.3689 14.85617532183189
Epoch (UTC): 14 November 2019 14:00:22
Eccentricity: 0.0006887
inclination: 75.0010°
perigee height: 607 km
apogee height: 616 km
right ascension of ascending node: 116.2656°
argument of perigee: 97.8269°
revolutions per day: 14.85617532
mean anomaly at epoch: 262.3689°
orbit number at epoch: 18318

The dashed part of the orbit path shows where the satellite is in the earth's shadow,  

DLR